Theta_e
338 348 350 350 351 353 355 355 353 356 357 353 350 347 341 344 351 358 360 359 359 358 360 353 351 347 345 347 348 346 346 343 344 339 336 337 347 344 329 337 331 327 325
332 345 347 348 350 350 353 352 353 359 359 353 351 345 345 351 353 355 356 353 351 351 351 352 349 349 346 345 344 343 339 339 339 329 327 322 327 329 327 325 325 326 325
326 340 344 347 350 349 350 351 356 358 358 355 360 361 357 354 351 351 350 347 348 349 349 347 344 345 345 339 337 335 333 325 328 333 320 314 312 317 322 326 323 329 323
326 341 340 339 346 348 350 351 353 356 355 363 360 358 350 347 360 346 342 340 343 342 342 341 339 337 333 333 329 328 329 328 321 321 322 325 322 315 312 320 323 324 325
327 340 339 341 346 347 347 350 352 354 358 361 362 354 357 354 348 342 341 338 337 335 333 333 332 331 328 329 329 328 328 324 321 319 318 323 319 322 316 312 315 318 320
331 340 343 345 345 346 347 349 350 353 354 354 356 357 355 345 343 340 337 334 331 329 330 328 328 328 327 327 326 327 326 325 323 321 321 318 316 316 316 313 316 314 318
331 338 342 342 345 345 346 347 350 350 354 355 354 353 352 346 343 340 336 334 330 327 327 327 326 324 326 325 326 326 324 323 323 324 321 321 320 319 318 315 313 312 315
331 337 344 338 344 345 346 347 349 349 351 349 350 347 345 341 339 340 336 331 328 325 327 325 325 324 324 325 325 322 322 325 324 325 324 322 321 320 318 316 313 309 311
334 340 343 339 342 344 346 346 348 349 351 347 347 345 342 341 337 336 334 328 328 324 324 323 323 323 323 324 324 322 324 325 325 325 325 322 321 321 320 318 316 312 309
336 341 343 342 344 345 348 348 346 347 346 345 343 341 339 338 334 332 328 326 324 323 322 321 321 321 321 322 324 324 324 325 323 323 324 323 322 322 321 320 319 318 314
340 341 339 340 343 345 343 343 345 345 343 341 339 337 335 333 331 327 325 324 324 322 320 320 320 320 321 322 323 323 323 323 323 324 322 322 324 321 321 321 320 318 316
338 340 335 337 340 339 341 342 342 340 339 338 336 334 332 329 326 324 323 323 321 321 320 320 320 321 322 322 322 321 322 322 321 321 321 321 320 322 323 319 323 321 321
339 335 336 336 337 339 340 338 337 335 335 334 331 330 328 325 324 323 322 321 321 320 320 321 320 320 320 321 322 322 321 321 321 321 321 320 319 317 316 316 317 317 317
331 333 333 335 336 338 336 334 333 333 332 330 328 326 324 323 322 322 321 321 320 320 321 321 321 321 321 321 321 321 322 321 321 321 321 320 316 314 312 311 314 315 316
326 330 330 332 334 334 333 332 330 330 329 326 324 323 323 322 321 321 320 320 319 320 321 321 321 320 317 312 315 322 322 321 321 321 320 319 313 312 310 308 310 313 314
326 329 330 331 332 327 330 329 327 325 324 322 320 320 320 320 320 320 320 319 319 320 321 320 320 318 311 300 302 309 322 321 320 319 318 316 313 311 307 307 307 309 311
329 328 330 331 328 327 327 325 324 323 321 320 319 319 319 318 319 319 318 318 320 321 320 320 319 317 312 298 299 302 321 320 319 318 315 310 308 307 304 306 307 312 308
327 330 329 330 327 326 326 324 322 320 319 318 318 318 318 318 318 317 318 319 320 319 318 317 318 316 307 297 297 299 316 320 319 317 314 310 307 301 299 306 314 315 313
330 330 330 327 325 325 323 321 320 318 317 316 316 316 317 317 317 316 318 319 319 318 317 317 316 317 310 296 296 301 320 318 317 315 309 306 305 294 294 307 310 311 313
327 326 323 324 324 323 323 320 318 317 316 315 316 317 316 317 317 318 318 319 318 317 317 316 316 306 311 294 295 296 314 314 313 314 304 296 297 294 294 304 307 306 308
323 324 323 323 324 323 321 318 317 315 316 316 316 315 317 317 318 319 319 317 318 316 315 315 315 314 310 302 294 294 305 305 309 307 304 303 294 293 293 293 305 303 301
319 321 320 320 321 321 320 316 315 316 315 315 314 316 317 316 317 318 317 317 316 314 315 315 315 315 311 299 294 294 294 296 306 303 301 301 293 293 294 297 294 294 299
317 320 320 318 319 318 319 315 314 315 314 314 314 315 316 316 316 315 315 313 315 314 314 313 312 313 314 311 296 295 295 297 302 303 298 295 294 294 300 296 295 298 304
318 319 318 316 316 316 315 314 314 315 314 314 314 314 314 314 315 315 316 315 311 313 312 311 311 311 309 302 299 302 303 302 302 303 304 301 297 296 300 303 303 304 304
319 319 317 316 315 315 314 315 315 315 314 313 313 313 312 314 312 306 304 309 301 299 309 306 309 302 305 292 290 291 295 296 297 293 304 302 302 302 303 303 303 303 303
318 316 316 315 314 313 313 314 315 315 314 312 312 311 312 312 310 307 303 292 293 292 290 290 297 297 290 289 290 290 289 289 290 300 300 299 300 300 301 301 301 301 301
Wind_Speed
14 18 14 16 15 15 17 17 16 16 11 10 8 8 9 8 6 3 5 4 2 2 1 2 1 5 5 6 6 7 5 5 7 8 10 10 6 7 7 8 7 10 10
16 14 19 18 17 15 18 17 16 15 11 9 7 8 8 8 7 6 6 7 9 7 5 6 3 5 5 7 6 7 6 6 8 7 8 6 6 8 8 7 7 11 8
20 19 18 19 21 21 21 18 16 14 12 12 7 6 9 6 7 7 7 5 4 6 5 7 7 4 3 6 7 8 10 6 7 9 6 6 6 10 7 9 7 8 8
22 23 13 14 19 21 19 20 17 15 12 11 11 11 9 9 3 7 8 7 8 8 8 8 8 7 6 7 7 7 5 7 8 5 5 3 4 5 7 9 9 9 7
24 27 22 10 20 21 20 17 19 16 15 12 12 11 8 7 8 9 10 10 8 9 9 10 9 8 6 8 8 8 9 9 6 6 5 5 3 5 7 9 10 10 9
24 26 28 32 24 20 21 17 19 16 16 11 10 7 7 10 9 9 8 7 7 7 8 8 7 6 6 7 7 8 11 8 8 6 6 6 6 6 8 9 10 11 10
24 26 28 24 24 22 23 19 15 17 15 12 10 9 11 12 11 11 7 9 7 7 7 7 7 6 8 8 9 8 9 9 8 8 6 5 6 6 7 7 9 10 9
23 24 24 20 24 22 23 21 17 15 15 13 11 13 13 8 8 9 8 7 8 7 7 7 7 9 9 9 6 7 7 7 7 9 7 6 5 6 6 7 9 10 10
23 23 29 19 20 23 22 21 21 18 18 12 13 13 11 11 12 11 10 8 9 8 8 9 9 10 9 7 6 6 7 6 6 6 7 7 6 5 6 6 5 6 11
22 24 27 20 20 23 21 21 19 18 19 17 15 13 13 13 12 11 12 11 9 8 9 9 8 8 7 6 4 5 6 6 6 6 6 7 7 6 6 6 7 8 10
27 23 18 27 26 22 21 21 21 21 18 16 16 15 13 13 12 11 11 10 9 8 8 8 7 7 6 6 5 5 5 7 6 6 6 7 7 8 8 9 8 9 10
24 22 15 17 25 23 22 21 20 20 18 17 16 15 13 13 12 11 10 9 8 8 7 7 6 6 6 5 5 6 6 7 7 6 7 8 8 10 10 10 9 9 8
21 15 30 18 20 20 22 22 20 20 19 17 16 15 14 12 12 11 9 9 8 8 7 7 6 7 7 6 6 6 6 6 6 6 8 9 10 11 11 12 11 11 10
20 21 22 23 24 21 22 21 20 19 18 17 16 15 13 13 11 10 9 9 8 8 7 7 7 7 7 6 6 6 6 5 6 6 7 6 9 11 11 11 12 11 12
20 22 23 20 22 22 21 20 19 18 17 17 15 14 13 12 11 10 10 9 8 6 7 7 8 7 8 8 10 5 6 6 7 7 8 9 6 4 8 9 11 12 11
26 24 23 24 23 18 20 17 19 17 16 16 15 14 13 12 11 10 10 9 8 6 7 7 8 8 8 10 10 10 6 6 8 8 9 11 2 13 15 15 18 15 11
26 27 26 24 21 20 18 18 19 17 16 16 14 13 12 12 11 10 10 9 7 6 7 7 8 9 8 11 11 11 4 5 7 8 8 10 10 13 13 14 19 9 9
26 25 23 22 18 21 19 19 19 16 16 15 14 13 12 12 11 11 10 8 8 7 7 7 7 9 8 9 11 11 8 4 5 5 7 8 11 12 13 12 11 10 5
23 22 18 20 19 22 19 20 19 16 15 14 14 12 12 12 11 11 10 8 8 7 7 7 5 8 8 9 12 13 6 5 5 5 8 9 10 11 15 11 11 12 11
19 21 19 17 17 21 19 19 19 17 16 15 13 12 12 11 11 10 9 8 7 6 7 7 6 4 8 8 11 13 6 5 6 5 10 15 10 10 13 11 11 10 11
20 21 24 17 17 19 20 19 18 17 16 15 14 12 11 11 10 9 9 7 6 7 6 6 6 6 5 7 8 12 8 7 7 7 8 8 8 8 13 12 10 10 13
19 18 21 19 19 17 17 19 18 17 16 15 14 13 12 9 9 10 8 6 7 6 4 5 6 7 7 4 5 3 4 7 7 7 7 7 10 12 10 10 13 15 13
17 17 20 21 18 17 16 19 18 17 16 16 15 13 12 10 9 9 8 6 5 6 7 6 4 4 4 6 6 4 2 2 5 6 4 10 12 16 6 13 14 10 10
18 19 23 22 21 19 18 17 17 17 17 16 14 12 11 10 9 7 6 6 6 1 3 3 3 2 7 7 7 7 5 4 5 8 4 6 9 9 8 7 9 9 9
20 21 21 20 21 20 20 18 18 17 16 15 13 12 10 9 11 12 11 10 10 8 5 8 5 6 8 6 6 7 7 7 8 11 5 6 7 7 7 8 9 9 10
20 19 21 21 21 20 19 18 17 16 15 14 11 9 9 8 9 8 9 16 12 12 13 13 11 9 11 4 5 9 10 12 12 4 6 7 7 8 8 9 9 10 11
Wind_Direction
176 140 140 154 153 161 160 158 163 168 182 159 185 157 169 165 144 133 171 154 138 127 110 98 29 352 330 352 327 315 347 16 13 355 350 310 110 106 354 27 19 29 350
183 163 148 164 153 162 159 165 162 168 161 175 178 177 171 125 171 143 99 56 53 38 56 4 5 359 342 37 11 358 354 31 49 13 323 343 326 22 347 14 10 16 343
170 177 159 160 163 167 164 160 156 161 174 173 134 98 104 125 168 145 112 77 78 61 50 46 36 32 337 59 34 16 27 22 45 29 6 337 3 323 11 15 15 343 349
176 159 151 156 176 165 161 157 152 161 168 165 151 156 169 176 163 88 89 82 76 77 77 75 70 54 54 41 45 34 17 18 36 8 17 18 13 354 330 339 357 2 332
185 151 146 201 180 167 156 150 154 165 155 175 162 173 181 142 105 102 101 92 80 74 66 65 61 50 50 63 46 41 31 53 19 35 13 19 6 32 335 324 342 357 347
173 157 157 176 169 155 144 156 159 161 162 169 160 191 127 105 119 136 139 122 110 93 71 74 73 58 66 55 57 50 52 46 41 12 26 25 17 358 344 333 343 341 333
172 152 178 160 155 154 145 162 157 155 155 147 149 145 101 111 126 150 128 130 124 100 82 81 54 69 62 60 52 54 59 54 48 32 10 34 22 351 350 335 340 336 327
170 168 161 154 157 151 153 152 146 143 149 135 110 102 126 135 126 107 123 106 103 101 107 90 78 65 59 58 51 61 60 50 60 41 30 340 20 0 356 345 350 346 350
161 170 161 165 157 159 147 144 151 151 124 124 124 131 120 116 99 110 115 106 116 116 87 75 65 62 61 60 76 62 61 51 40 62 24 352 7 2 3 355 354 322 323
162 161 159 169 160 152 141 138 141 135 134 127 122 113 115 117 115 102 92 94 95 86 77 73 71 70 65 57 28 96 62 58 36 40 25 4 11 345 360 334 340 328 343
163 171 157 151 152 139 137 141 139 132 128 124 117 121 118 114 110 105 98 100 99 94 85 83 79 79 73 69 76 79 66 65 57 34 28 19 2 358 5 333 1 337 350
172 155 147 158 128 143 139 133 129 128 127 127 122 121 116 110 106 105 106 107 98 93 92 85 78 79 82 82 76 56 60 53 47 38 18 22 7 358 360 336 349 334 329
161 146 132 143 137 137 137 133 131 129 129 124 123 121 117 115 112 111 110 105 104 94 83 82 85 86 93 96 83 75 67 60 49 28 16 15 9 3 352 340 335 336 332
142 146 142 140 144 146 133 132 128 129 126 126 123 122 120 119 116 115 111 105 100 100 97 91 90 90 88 82 77 71 68 52 54 26 8 12 11 4 349 336 327 339 326
147 152 148 143 142 134 130 129 127 126 127 124 123 120 121 121 123 119 111 108 103 97 100 102 95 83 61 30 358 32 53 38 30 17 8 13 52 350 2 336 330 322 335
154 152 148 148 132 127 129 131 125 126 128 126 125 129 128 127 120 119 115 109 103 102 102 101 95 78 64 3 0 352 24 33 26 11 11 346 59 9 359 335 317 290 288
156 158 151 147 138 136 122 137 129 130 129 126 129 129 132 129 128 125 118 113 108 99 95 92 89 81 74 7 351 351 343 22 24 18 13 353 4 20 347 337 307 309 214
165 155 157 136 130 120 141 134 129 132 129 132 131 136 138 134 132 128 119 124 120 109 97 95 98 90 65 5 348 333 290 31 22 18 31 360 358 16 344 328 347 340 160
157 150 136 128 130 126 137 133 130 134 134 132 137 136 136 135 132 127 133 123 116 115 115 109 98 88 63 13 351 331 303 38 343 31 53 23 13 356 332 337 360 348 357
153 125 119 115 126 137 140 136 135 139 136 136 131 134 136 136 129 129 133 115 127 124 114 106 95 75 83 34 3 356 2 19 342 76 123 72 33 331 319 343 2 351 343
129 122 120 140 152 140 144 138 139 132 127 127 125 127 128 122 125 127 123 137 109 96 105 112 109 83 56 66 33 7 24 8 343 11 15 30 356 318 308 313 358 329 311
113 132 130 145 142 145 141 134 127 124 128 127 126 124 129 131 133 128 125 127 125 124 144 155 170 130 123 75 103 67 37 2 358 20 19 3 320 298 288 312 320 307 312
147 147 135 140 149 145 134 126 129 130 128 123 126 129 126 123 132 135 137 132 178 149 177 186 156 131 117 110 154 223 243 333 349 0 326 277 277 281 287 241 277 324 11
159 147 146 146 141 132 127 128 131 130 131 129 129 129 131 130 133 142 157 117 43 7 139 116 84 128 83 30 13 5 2 302 338 6 248 312 285 262 281 6 17 15 12
154 150 145 142 130 130 132 133 133 133 130 133 133 129 136 133 91 63 18 87 52 29 9 26 44 347 80 64 17 359 5 357 350 324 346 9 9 10 16 16 18 24 8
146 141 137 131 131 132 130 130 133 137 139 136 137 146 131 138 119 119 87 54 58 52 56 46 35 73 84 106 333 323 321 322 326 314 19 15 12 13 14 12 11 20 8